This is the latest recevied weather packets stored in our database for station/object EB1AYW-10. If no packets are shown the sender has not sent any weather packets the latest 1 day(s).
| Time | Temp. | Humidity | Pressure | Rain* | Wind** | Luminosity | Snow |
|---|---|---|---|---|---|---|---|
| 1778099964 | 21.67° C | 41% | 921 hPa | - | - | - | - |
| 1778096368 | 22.22° C | 40% | 920.7 hPa | - | - | - | - |
| 1778077469 | 23.89° C | 37% | 921.6 hPa | - | - | - | - |
| 1778074765 | 23.89° C | 37% | 922.1 hPa | - | - | - | - |
| 1778073865 | 23.89° C | 38% | 922.2 hPa | - | - | - | - |
| 1778071165 | 23.33° C | 38% | 922.6 hPa | - | - | - | - |
| 1778067566 | 23.33° C | 38% | 923.2 hPa | - | - | - | - |
| 1778059466 | 22.22° C | 39% | 923.4 hPa | - | - | - | - |
| 1778058566 | 22.22° C | 39% | 923.4 hPa | - | - | - | - |
| 1778047765 | 21.11° C | 41% | 923.5 hPa | - | - | - | - |
| 1778045964 | 20.56° C | 42% | 923.4 hPa | - | - | - | - |
| 1778045065 | 20.56° C | 41% | 923.3 hPa | - | - | - | - |
| 1778041465 | 20.56° C | 42% | 923.3 hPa | - | - | - | - |
| 1778040564 | 20.56° C | 42% | 923.4 hPa | - | - | - | - |
| 1778037865 | 20.56° C | 42% | 923.5 hPa | - | - | - | - |
| 1778036965 | 20.56° C | 42% | 923.5 hPa | - | - | - | - |
| 1778034265 | 20.56° C | 41% | 923.4 hPa | - | - | - | - |
| 1778033366 | 20.56° C | 41% | 923.6 hPa | - | - | - | - |
| 1778031567 | 21.11° C | 41% | 923.8 hPa | - | - | - | - |
| 1778027062 | 21.11° C | 41% | 924.2 hPa | - | - | - | - |
* Rain since midnight (hover to see other rain measurements)
** Current wind speed in m/s (hover to see current wind gust speed)